Regional Weather Roundup
Issued by NWS

Home | Current Version | Previous Version | Graphics & Text | Print | Product List | Glossary On
Versions: 1 2 3 4 5 6 7 8 9 10 11 12 13 14 15 16 17 18 19 20 21 22 23 24 25 26 27 28 29 30 31 32 33 34 35 36 37 38 39 40 41 42 43 44 45 46 47 48 49 50
000
ASUS44 KMEG 280700
RWRTN
TENNESSEE HOURLY STATE WEATHER ROUNDUP
NATIONAL WEATHER SERVICE MEMPHIS TN
200 AM CDT WED JUN 28 2017

TNZ002-004-019-021-049-052-054-088>092-280800-
WEST TENNESSEE

CITY           SKY/WX    TMP DP  RH WIND       PRES   REMARKS
MEMPHIS INTL   PTCLDY    74  64  71 SE8       30.04F
NWS MEMPHIS      N/A     70 N/A N/A MISG        N/A
JACKSON        CLEAR     63  62  97 CALM      30.07F
$$

TNZ008-025-027-028-033-062-065-066-280800-
NORTH MIDDLE TENNESSEE

CITY           SKY/WX    TMP DP  RH WIND       PRES   REMARKS
NASHVILLE      CLEAR     63  59  87 SE3       30.11S
CLARKSVILLE    CLEAR     57  53  86 CALM      30.09F
SMYRNA         CLEAR     60  59  96 CALM      30.12S
CROSSVILLE     CLEAR     54  52  93 CALM      30.16F
$$

TNZ061-075-076-078-094-096-097-280800-
SOUTH MIDDLE TENNESSEE

CITY           SKY/WX    TMP DP  RH WIND       PRES   REMARKS
$$

TNZ017-018-042-046-047-280800-
NORTHEAST TENNESSEE

CITY           SKY/WX    TMP DP  RH WIND       PRES   REMARKS
TRI CITIES     CLEAR     52  50  93 CALM      30.18R
$$

TNZ012-013-036-069-073-074-280800-
CENTRAL EAST TENNESSEE

CITY           SKY/WX    TMP DP  RH WIND       PRES   REMARKS
KNOXVILLE      CLEAR     61  51  70 N3        30.13S
OAK RIDGE      CLEAR     57  54  89 CALM      30.15S
GATLINBURG     CLEAR     54  48  82 CALM      30.14S
$$

TNZ083-085-099-280800-
SOUTHEAST TENNESSEE

CITY           SKY/WX    TMP DP  RH WIND       PRES   REMARKS
CHATTANOOGA    CLEAR     61  57  87 CALM      30.12S
$$

SKY/WX REPORTED AS FAIR MEANS FEW OR NO CLOUDS BELOW
12 THOUSAND FEET.





USA.gov is the U.S. government's official web portal to all federal, state and local government web resources and services.